This demonstration page uses our WeatherBlox Daily Observations layout. Learn more.

Left ArrowRight Arrow

39.08367, -84.50855

Hourly Observations for October 29, 2018

Temp ( °F °C ) Dew Point ( °F °C ) Humidity (%) Winds ( mph kmh ) Pressure ( in mb ) Visibility ( mi km ) Precip ( " mm )
12:25 am 00:25 Cloudy 52 11.1 42 5.6 69 69 NW 10 17 29.94 1014 10 16 N/A
12:53 am 00:53 Cloudy 51 10.6 42 5.6 71 71 WNW 8 13 29.95 1014 10 16 N/A
1:53 am 01:53 Cloudy with Light Rain 50 10 44 6.7 80 80 WNW 7 11 29.98 1015 10 16 N/A
2:06 am 02:06 Cloudy with Light Rain 49 9.4 45 7.2 86 86 VRB 6 9 29.97 1015 10 16 N/A
2:53 am 02:53 Cloudy 49 9.4 44 6.7 83 83 NW 6 9 29.99 1016 10 16 N/A
3:53 am 03:53 Cloudy 50 10 43 6.1 77 77 W 9 15 30.01 1016 10 16 N/A
4:06 am 04:06 Cloudy 49 9.4 43 6.1 80 80 WNW 9 15 30.00 1016 10 16 N/A
4:29 am 04:29 Mostly Cloudy 49 9.4 43 6.1 80 80 W 7 11 30.00 1016 10 16 N/A
4:53 am 04:53 Mostly Cloudy 48 8.9 43 6.1 83 83 VRB 5 7 30.01 1016 10 16 N/A
5:53 am 05:53 Mostly Cloudy 47 8.3 43 6.1 86 86 W 6 9 30.05 1018 10 16 N/A
6:53 am 06:53 Partly Cloudy 46 7.8 42 5.6 86 86 WSW 9 15 30.07 1018 10 16 N/A
7:53 am 07:53 Partly Cloudy 43 6.1 40 4.4 89 89 SW 7 11 30.09 1019 10 16 N/A
8:53 am 08:53 Sunny 45 7.2 42 5.6 90 90 SW 6 9 30.11 1020 10 16 N/A
9:53 am 09:53 Partly Cloudy 49 9.4 43 6.1 80 80 W 8 13 30.13 1020 10 16 N/A
10:53 am 10:53 Partly Cloudy 51 10.6 43 6.1 74 74 WSW 10 17 30.14 1021 10 16 N/A
11:53 am 11:53 Partly Cloudy 54 12.2 44 6.7 69 69 W 12 19 30.14 1021 10 16 N/A
12:53 pm 12:53 Partly Cloudy 56 13.3 43 6.1 62 62 WSW 14 22 30.13 1020 10 16 N/A
1:53 pm 13:53 Mostly Cloudy 56 13.3 41 5 57 57 W 9 15 30.12 1020 10 16 N/A
2:53 pm 14:53 Mostly Cloudy 60 15.6 41 5 50 50 W 8 13 30.10 1019 10 16 N/A
3:53 pm 15:53 Mostly Sunny 60 15.6 38 3.3 44 44 W 8 13 30.08 1019 10 16 N/A
4:53 pm 16:53 Mostly Sunny 60 15.6 36 2.2 41 41 W 13 20 30.08 1019 10 16 N/A
5:53 pm 17:53 Sunny 58 14.4 35 1.7 42 42 W 10 17 30.09 1019 10 16 N/A
6:53 pm 18:53 Clear 55 12.8 34 1.1 45 45 N N/A 30.10 1019 10 16 N/A
7:53 pm 19:53 Clear 46 7.8 39 3.9 77 77 N N/A 30.11 1020 10 16 N/A
8:53 pm 20:53 Clear 43 6.1 40 4.4 89 89 N N/A 30.12 1020 10 16 N/A
9:53 pm 21:53 Clear 41 5 39 3.9 93 93 N N/A 30.12 1020 10 16 N/A
10:53 pm 22:53 Clear 39 3.9 39 3.9 100 100 N N/A 30.13 1020 10 16 N/A
11:53 pm 23:53 Clear 39 3.9 39 3.9 100 100 N N/A 30.13 1020 10 16 N/A

Powered by AerisWeather